Date String (YYYY-MM-DD hh:mm:ss) UTC,Instrument flags,Ambient pressure (hPa),Sample flow (lpm),Bypass flow (lpm),Sample temperature (°C),Ambient temperature (°C),ASC tube jacket temperature (°C),LED temperature (°C),Box temperature (°C),Sample RH (%),Span deviation,Mass concentration (μg/m³),Mass concentration (μg/m³),Mass concentration (μg/m³)
DateTimeUTC,F1_M11,P_M11,Q1_M11,Q2_M11,T1_M11,T2_M11,T3_M11,T4_M11,T5_M11,U1_M11,ZSPAN_M11,X0_M11,X2_M11,X1_M11
2022-09-24 01:00:00,,0826.7,5.00,0.00,30.2,27.1,00.0,38.8,32.0,09.3,0000.0,0005.25,0002.09,0001.42
2022-09-24 01:01:00,,0826.8,5.00,0.00,30.1,26.3,00.0,38.7,31.9,09.4,0000.0,0005.33,0002.14,0001.43
2022-09-24 01:02:00,,0826.7,5.00,0.00,30.0,26.4,00.0,38.7,31.8,09.4,0000.0,0005.18,0002.09,0001.44
2022-09-24 01:03:00,,0826.8,5.00,0.00,29.9,26.7,00.0,38.7,31.6,09.4,0000.0,0005.06,0002.07,0001.43
2022-09-24 01:04:00,,0826.9,5.00,0.00,29.9,27.1,00.0,38.6,31.6,09.3,0000.0,0004.85,0002.08,0001.42
2022-09-24 01:05:00,,0826.7,5.00,0.00,29.9,27.4,00.0,38.6,31.7,09.5,0000.0,0004.77,0002.04,0001.41
2022-09-24 01:06:00,,0826.7,5.01,0.00,29.9,27.7,00.0,38.6,31.7,09.8,0000.0,0004.77,0002.04,0001.41
2022-09-24 01:07:00,,0826.7,5.00,0.00,29.9,28.0,00.0,38.6,31.7,09.9,0000.0,0004.33,0002.04,0001.41
2022-09-24 01:08:00,,0826.7,5.00,0.00,29.9,28.2,00.0,38.6,31.7,10.1,0000.0,0004.26,0002.02,0001.40
2022-09-24 01:09:00,,0826.7,5.00,0.00,29.9,28.4,00.0,38.6,31.8,10.3,0000.0,0004.22,0002.00,0001.40
2022-09-24 01:10:00,,0826.8,4.99,0.00,29.9,28.5,00.0,38.6,31.9,10.3,0000.0,0004.86,0001.97,0001.40
2022-09-24 01:11:00,,0826.8,5.00,0.00,29.9,28.6,00.0,38.6,31.9,10.0,0000.0,0005.38,0001.98,0001.41
2022-09-24 01:12:00,,0826.8,4.99,0.00,30.0,28.7,00.0,38.6,31.9,09.8,0000.0,0005.31,0001.94,0001.41
2022-09-24 01:13:00,,0826.8,5.01,0.00,30.0,28.8,00.0,38.7,32.0,09.3,0000.0,0005.35,0001.95,0001.42
2022-09-24 01:14:00,,0826.8,4.99,0.00,30.0,28.9,00.0,38.7,32.0,09.5,0000.0,0005.35,0001.95,0001.43
2022-09-24 01:15:00,,0826.9,5.00,0.00,30.0,28.9,00.0,38.7,32.0,09.3,0000.0,0005.41,0001.98,0001.44
2022-09-24 01:16:00,,0826.8,5.01,0.00,30.1,29.0,00.0,38.7,32.0,09.6,0000.0,0005.25,0002.00,0001.45
2022-09-24 01:17:00,,0827.2,5.00,0.00,30.1,29.1,00.0,38.7,32.1,09.7,0000.0,0004.78,0001.99,0001.46
2022-09-24 01:18:00,,0827.0,5.00,0.00,30.1,29.1,00.0,38.8,32.1,09.7,0000.0,0004.60,0001.95,0001.47
2022-09-24 01:19:00,,0826.8,5.00,0.00,30.2,29.2,00.0,38.8,32.2,09.8,0000.0,0004.71,0001.99,0001.48
2022-09-24 01:20:00,,0826.8,5.00,0.00,30.2,29.2,00.0,38.8,32.2,09.7,0000.0,0004.53,0001.97,0001.49
2022-09-24 01:21:00,,0826.9,5.00,0.00,30.3,29.3,00.0,38.9,32.2,09.5,0000.0,0003.72,0001.96,0001.49
2022-09-24 01:22:00,,0826.9,4.99,0.00,30.3,28.7,00.0,38.9,32.2,09.5,0000.0,0003.10,0001.98,0001.50
2022-09-24 01:23:00,,0827.0,5.01,0.00,30.3,27.3,00.0,38.8,32.1,09.8,0000.0,0003.37,0002.07,0001.51
2022-09-24 01:24:00,,0827.0,5.01,0.00,30.2,27.0,00.0,38.8,32.0,09.5,0000.0,0003.38,0002.08,0001.52
2022-09-24 01:25:00,,0827.0,5.00,0.00,30.1,27.1,00.0,38.8,31.9,09.9,0000.0,0003.51,0002.12,0001.53
2022-09-24 01:26:00,,0827.0,5.01,0.00,30.1,27.5,00.0,38.8,31.8,10.6,0000.0,0003.53,0002.13,0001.58
2022-09-24 01:27:00,,0827.4,5.00,0.00,30.0,27.7,00.0,38.8,31.9,10.8,0000.0,0003.67,0002.20,0001.61
2022-09-24 01:28:00,,0827.0,5.00,0.00,30.0,28.0,00.0,38.8,31.9,10.7,0000.0,0003.65,0002.25,0001.64
2022-09-24 01:29:00,,0827.2,5.01,0.00,30.0,28.2,00.0,38.8,31.9,10.5,0000.0,0003.77,0002.30,0001.67
2022-09-24 01:30:00,,0827.0,4.99,0.00,30.1,28.4,00.0,38.8,32.0,10.2,0000.0,0003.77,0002.30,0001.67
2022-09-24 01:31:00,,0827.1,5.00,0.00,30.1,28.5,00.0,38.8,32.0,10.4,0000.0,0003.77,0002.31,0001.68
2022-09-24 01:32:00,,0827.2,5.00,0.00,30.1,28.7,00.0,38.8,32.0,10.5,0000.0,0003.80,0002.32,0001.70
2022-09-24 01:33:00,,0827.2,5.01,0.00,30.1,28.8,00.0,38.8,32.0,10.5,0000.0,0003.82,0002.32,0001.70
2022-09-24 01:34:00,,0827.2,4.99,0.00,30.1,28.9,00.0,38.8,32.1,10.5,0000.0,0003.67,0002.26,0001.70
2022-09-24 01:35:00,,0827.2,4.99,0.00,30.2,28.9,00.0,38.8,32.1,10.5,0000.0,0003.63,0002.25,0001.71
2022-09-24 01:36:00,,0827.2,5.01,0.00,30.2,29.0,00.0,38.8,32.1,10.8,0000.0,0003.66,0002.25,0001.72
2022-09-24 01:37:00,,0827.2,5.00,0.00,30.2,29.1,00.0,38.9,32.1,11.2,0000.0,0003.76,0002.24,0001.69
2022-09-24 01:38:00,,0827.2,5.00,0.00,30.2,29.1,00.0,38.9,32.2,11.5,0000.0,0003.51,0002.14,0001.65
2022-09-24 01:39:00,,0827.2,5.00,0.00,30.3,29.2,00.0,38.9,32.2,11.2,0000.0,0003.37,0002.08,0001.63
2022-09-24 01:40:00,,0827.4,5.00,0.00,30.3,29.2,00.0,38.9,32.2,11.0,0000.0,0003.43,0002.10,0001.61
2022-09-24 01:41:00,,0827.3,5.01,0.00,30.3,28.9,00.0,38.9,32.2,10.6,0000.0,0003.62,0002.12,0001.60
2022-09-24 01:42:00,,0827.3,5.00,0.00,30.3,27.3,00.0,38.9,32.1,11.3,0000.0,0003.63,0002.11,0001.60
2022-09-24 01:43:00,,0827.4,5.00,0.00,30.3,26.9,00.0,38.8,32.0,11.8,0000.0,0004.88,0002.13,0001.59
2022-09-24 01:44:00,,0827.4,5.01,0.00,30.2,27.0,00.0,38.8,31.9,10.7,0000.0,0005.72,0002.23,0001.60
2022-09-24 01:45:00,,0827.4,5.00,0.00,30.1,27.3,00.0,38.8,31.8,11.0,0000.0,0005.71,0002.21,0001.59
2022-09-24 01:46:00,,0827.4,5.00,0.00,30.1,27.6,00.0,38.8,31.8,11.3,0000.0,0005.73,0002.21,0001.58
2022-09-24 01:47:00,,0827.4,4.99,0.00,30.1,27.9,00.0,38.8,31.9,11.3,0000.0,0005.69,0002.19,0001.56
2022-09-24 01:48:00,,0827.4,5.00,0.00,30.0,28.1,00.0,38.8,31.9,10.9,0000.0,0005.54,0002.18,0001.55
2022-09-24 01:49:00,,0827.5,5.00,0.00,30.1,28.3,00.0,38.8,31.9,10.5,0000.0,0005.54,0002.18,0001.55
2022-09-24 01:50:00,,0827.5,5.00,0.00,30.1,28.5,00.0,38.8,32.0,10.2,0000.0,0005.56,0002.18,0001.54
2022-09-24 01:51:00,,0827.5,5.00,0.00,30.1,28.6,00.0,38.8,32.0,09.7,0000.0,0005.46,0002.14,0001.54
2022-09-24 01:52:00,,0827.5,5.01,0.00,30.1,28.7,00.0,38.8,32.0,10.3,0000.0,0005.09,0002.05,0001.53
2022-09-24 01:53:00,,0827.5,4.99,0.00,30.1,28.8,00.0,38.8,32.0,09.9,0000.0,0005.12,0002.07,0001.52
2022-09-24 01:54:00,,0827.5,5.00,0.00,30.1,28.9,00.0,38.8,32.0,09.5,0000.0,0003.97,0002.08,0001.52
2022-09-24 01:55:00,,0827.5,5.00,0.00,30.2,28.9,00.0,38.8,32.1,10.3,0000.0,0003.25,0002.04,0001.52
2022-09-24 01:56:00,,0827.4,4.99,0.00,30.2,29.0,00.0,38.8,32.1,10.1,0000.0,0003.35,0002.09,0001.52
2022-09-24 01:57:00,,0827.5,5.00,0.00,30.2,29.0,00.0,38.9,32.1,10.2,0000.0,0003.53,0002.09,0001.51
2022-09-24 01:58:00,,0827.5,5.01,0.00,30.2,29.1,00.0,38.9,32.1,10.5,0000.0,0003.58,0002.11,0001.52
2022-09-24 01:59:00,,0827.5,4.99,0.00,30.3,29.1,00.0,38.9,32.2,10.4,0000.0,0003.89,0002.11,0001.52
